Wind_Speed
21 21 23 23 23 24 27 29 32 34 34 38 29 43 37 12 17 15 18 17 15 15 16 20 18 14 15 15 11 9 11 11 10 11 10 9 7 10 7 5 7 8 8
20 19 20 23 25 24 27 29 31 34 35 35 33 40 43 43 13 23 21 22 21 19 20 18 21 20 18 17 16 14 10 13 14 13 13 13 11 10 9 10 8 7 8
18 19 21 19 21 24 25 27 32 34 36 32 32 36 49 42 44 21 26 27 27 26 25 23 22 22 23 22 19 18 17 13 14 16 16 16 16 12 11 11 9 8 7
16 17 16 19 23 27 28 30 31 36 35 37 32 32 39 46 38 48 30 22 32 30 30 29 26 27 26 26 24 24 21 17 22 18 20 19 18 18 15 14 12 9 8
17 19 20 21 25 27 30 30 28 35 38 37 36 36 33 40 46 51 40 38 17 32 35 33 33 29 30 30 29 29 27 26 21 21 21 25 22 22 20 19 16 12 9
21 22 22 21 23 26 29 33 31 34 36 37 39 38 36 36 39 45 51 46 34 15 30 39 36 34 31 34 33 30 30 30 29 24 22 26 28 26 25 24 21 17 13
23 24 25 24 23 26 29 32 36 32 38 36 35 36 38 37 41 42 46 47 56 40 28 27 43 37 35 37 40 38 35 33 33 33 30 26 30 33 30 28 26 22 19
25 25 26 27 27 27 30 32 36 34 40 39 35 34 38 36 38 44 46 44 41 39 47 46 25 43 39 38 40 42 43 37 36 37 37 33 31 35 38 33 31 29 25
26 26 27 27 28 28 29 31 34 35 39 36 35 35 35 40 37 42 47 47 59 51 39 44 55 22 43 45 43 44 46 45 42 41 41 41 37 36 40 42 37 35 32
28 28 27 27 27 28 30 31 38 37 36 34 33 34 33 39 47 42 48 49 53 56 40 45 52 52 28 43 48 45 46 47 46 48 47 46 45 41 40 45 43 40 38
30 30 31 30 30 30 33 38 43 34 35 37 34 34 36 36 44 54 48 52 54 53 52 41 47 54 46 18 42 51 49 49 50 50 52 50 50 48 46 44 47 45 42
34 35 35 34 36 36 41 43 37 37 35 35 35 36 36 34 48 49 42 45 54 56 54 51 54 52 49 46 19 41 54 53 54 57 57 55 52 54 51 48 50 50 47
40 39 38 40 41 42 45 38 36 42 39 39 42 47 42 41 51 45 48 49 52 57 55 43 51 49 55 52 37 25 44 58 62 62 63 64 61 57 57 55 51 54 52
44 42 42 42 37 36 39 39 44 48 47 40 46 51 48 46 45 48 54 55 59 49 54 45 45 55 56 50 54 46 31 47 66 70 69 69 69 65 61 61 58 56 57
44 45 41 39 37 39 38 43 49 50 40 42 62 59 49 49 53 52 58 63 67 54 47 41 45 51 61 61 61 62 44 32 55 75 77 75 73 72 69 67 65 60 60
48 40 40 39 34 42 47 45 47 47 47 58 59 56 56 58 62 62 60 59 61 58 51 47 52 60 67 65 68 77 51 47 47 68 84 84 80 77 75 73 72 68 63
45 42 41 45 45 47 50 51 51 52 56 60 62 58 58 64 70 60 61 61 63 62 52 54 63 66 73 75 77 77 63 64 48 62 78 91 90 85 80 78 77 74 70
46 44 41 43 46 53 49 48 57 57 60 65 62 63 69 71 63 63 66 58 64 61 55 55 60 75 77 85 88 72 82 74 54 51 60 87 95 93 87 83 83 79 75
44 42 43 53 59 54 53 56 61 65 64 66 70 70 70 70 67 64 65 70 62 58 61 60 67 74 83 88 90 88 95 73 49 50 51 68 89 97 94 88 86 85 80
48 47 47 51 56 61 65 66 67 68 70 72 70 71 69 73 74 75 68 62 62 62 64 67 73 79 86 89 91 95 96 79 51 46 47 57 68 91 97 93 89 88 87
49 49 56 54 55 62 65 68 71 72 74 79 71 72 76 80 76 72 75 69 70 67 70 74 78 85 92 94 95 102 92 67 53 43 45 50 59 75 95 99 94 89 89
50 54 56 57 61 62 69 72 73 73 79 82 82 82 81 78 77 72 76 71 71 73 77 82 90 90 96 97 99 86 78 54 48 45 43 53 58 65 84 96 98 92 87
55 56 63 63 65 70 71 72 78 82 84 80 80 80 75 70 70 72 73 72 74 79 85 86 86 89 95 100 90 78 67 55 44 45 42 53 55 65 72 87 93 96 92
64 68 68 69 69 69 71 73 74 77 81 81 78 77 73 74 69 72 75 79 82 80 81 88 93 94 97 93 77 69 64 54 46 43 41 52 55 66 62 75 93 98 95
69 70 71 74 73 66 71 73 75 77 76 74 68 67 67 68 71 74 76 79 81 88 90 94 98 90 81 76 67 66 61 51 44 41 37 42 51 60 62 70 84 95 99
72 72 73 69 68 69 71 75 70 63 66 66 70 70 72 76 75 77 79 80 86 89 91 91 78 74 77 74 63 57 51 48 40 37 30 38 48 55 66 65 78 88 94
Wind_Direction
56 49 50 47 38 24 23 22 23 18 19 19 19 30 27 280 253 262 266 256 241 241 239 239 239 241 243 249 243 224 287 247 241 237 227 216 226 191 188 162 125 112 104
52 45 36 35 37 31 19 17 21 20 19 19 22 21 25 28 337 249 245 252 253 242 240 237 234 230 244 244 244 232 206 266 241 240 238 230 223 216 197 176 156 138 124
23 17 18 25 25 20 20 15 14 14 18 14 15 18 25 23 25 8 249 245 245 247 243 236 231 234 226 237 238 244 229 219 242 241 240 238 233 222 201 186 176 165 151
357 355 3 4 3 7 9 6 7 10 12 11 6 5 6 20 21 25 16 255 242 244 243 242 238 228 223 226 232 238 238 227 266 257 240 237 237 228 215 200 187 176 167
345 346 339 336 345 347 354 359 2 6 5 8 0 357 2 7 12 20 28 22 275 244 242 242 243 236 227 223 226 233 235 237 233 263 243 235 233 233 221 214 202 200 195
341 335 339 334 329 332 336 347 351 359 2 359 1 352 351 355 360 21 25 22 11 308 250 242 238 238 235 224 225 227 233 237 238 232 252 238 232 232 229 220 210 204 201
334 329 325 325 325 325 331 337 342 345 353 352 354 351 348 350 350 353 8 19 27 25 356 267 244 239 235 228 224 222 225 231 232 234 233 246 235 230 228 227 221 209 207
331 327 323 321 323 323 328 332 333 336 343 344 345 349 344 345 349 348 351 1 355 355 16 22 261 243 239 236 232 229 224 229 234 232 231 234 240 235 228 226 224 222 216
331 326 321 321 324 325 328 329 331 328 335 338 342 340 343 341 344 341 346 354 1 357 3 15 26 274 244 238 236 231 230 224 232 238 232 228 233 238 235 227 224 224 223
334 332 328 327 326 324 325 329 328 324 330 333 337 343 343 344 347 337 342 344 353 351 344 355 4 6 359 247 240 240 234 232 228 231 238 231 229 233 237 229 225 224 223
332 328 327 326 325 323 320 324 328 321 322 324 327 338 342 340 336 344 339 338 336 351 355 338 346 354 4 330 248 240 239 237 233 228 234 235 232 230 232 232 225 223 223
327 327 324 322 324 320 322 320 324 318 317 318 319 330 335 327 342 333 334 327 335 335 343 338 342 349 355 1 309 250 241 238 235 232 230 233 233 231 230 231 227 223 221
325 324 322 322 322 317 318 316 318 330 323 319 319 321 318 328 333 330 329 330 331 332 337 338 340 334 340 355 354 302 251 242 238 233 231 232 232 231 229 228 227 225 222
319 319 320 317 308 320 319 320 320 319 322 318 320 321 320 321 316 324 329 326 328 321 329 329 329 332 338 343 347 340 302 254 242 236 232 230 230 230 227 226 226 225 223
316 316 315 313 304 315 310 313 315 316 304 309 316 320 310 317 322 321 320 323 329 312 319 315 320 319 327 330 330 328 321 295 255 240 233 230 228 227 225 224 223 224 223
317 315 316 316 303 300 312 314 311 307 300 307 309 313 312 311 318 320 322 321 319 313 314 311 317 319 320 323 326 324 317 322 278 251 234 230 227 226 224 222 221 222 223
315 314 316 311 312 310 301 304 310 305 304 304 309 310 310 312 315 319 316 319 317 315 314 308 314 312 314 316 319 320 332 328 301 264 240 231 226 224 223 222 220 220 222
311 315 312 310 304 308 303 305 306 304 304 305 306 306 308 312 316 316 318 313 313 313 313 307 309 308 309 313 316 328 330 324 305 266 249 234 228 224 223 221 220 219 219
312 314 297 294 294 300 301 301 300 303 302 302 306 309 310 311 313 314 311 312 310 313 310 312 311 310 310 315 319 324 320 319 294 271 252 237 230 225 224 222 220 218 217
310 306 304 298 299 296 297 299 297 298 300 303 305 306 305 305 306 307 308 303 309 311 309 310 310 310 312 318 318 315 319 314 292 273 255 236 232 226 223 223 220 218 217
304 304 303 301 294 292 294 295 296 294 294 299 302 302 303 303 306 307 306 308 312 315 312 313 303 308 313 317 315 314 314 310 293 276 255 239 230 226 221 221 220 218 217
305 304 301 298 298 293 292 288 290 291 292 293 296 300 301 302 304 305 306 308 309 305 303 304 309 314 312 314 314 315 310 307 290 272 252 239 228 226 222 219 219 217 217
305 298 303 300 298 296 295 291 287 289 290 294 298 300 300 302 302 303 306 304 304 306 307 310 311 308 306 305 308 308 305 301 289 268 248 235 226 226 223 219 217 217 216
301 303 302 299 298 296 290 290 287 287 289 291 294 296 297 299 301 301 300 302 303 307 306 303 302 303 302 305 307 307 304 298 290 268 247 234 226 222 226 217 214 215 216
302 301 301 299 299 295 289 290 289 290 291 288 295 298 298 299 299 300 301 303 304 303 303 302 303 303 303 305 307 304 301 294 288 266 245 231 225 219 220 214 213 213 214
303 300 299 300 297 296 291 290 293 295 294 296 295 298 299 298 294 294 299 300 298 299 299 302 302 306 307 309 306 302 297 292 280 265 238 224 225 215 216 215 211 212 213
Height
10966 10965 10963 10961 10958 10956 10953 10950 10947 10942 10938 10932 10927 10922 10917 10913 10913 10913 10913 10913 10914 10916 10915 10918 10920 10922 10923 10923 10923 10923 10924 10924 10924 10924 10925 10925 10926 10926 10926 10926 10927 10928 10928
10968 10966 10965 10962 10959 10957 10954 10950 10946 10942 10938 10933 10928 10923 10918 10914 10909 10907 10907 10906 10907 10909 10910 10912 10914 10917 10918 10919 10919 10920 10920 10922 10922 10923 10923 10923 10924 10925 10925 10926 10927 10927 10928
10968 10966 10965 10963 10960 10958 10954 10950 10946 10943 10938 10934 10930 10924 10919 10913 10909 10902 10900 10900 10900 10901 10902 10904 10907 10909 10912 10913 10915 10916 10917 10917 10919 10920 10921 10921 10921 10923 10924 10925 10926 10926 10927
10968 10966 10964 10962 10959 10957 10953 10950 10944 10940 10937 10932 10928 10924 10920 10913 10906 10901 10895 10892 10894 10894 10895 10897 10899 10901 10904 10907 10910 10912 10913 10913 10916 10916 10917 10918 10919 10921 10922 10923 10924 10925 10926
10967 10964 10962 10960 10957 10954 10952 10950 10944 10939 10934 10930 10924 10921 10918 10914 10907 10900 10894 10889 10885 10886 10889 10890 10891 10895 10897 10901 10903 10905 10908 10909 10909 10912 10912 10914 10916 10917 10919 10921 10923 10924 10925
10965 10962 10959 10957 10954 10951 10949 10946 10942 10937 10933 10928 10924 10918 10915 10913 10907 10902 10896 10888 10884 10880 10880 10879 10880 10884 10889 10893 10896 10899 10902 10904 10905 10905 10908 10909 10912 10914 10916 10918 10920 10921 10923
10964 10960 10956 10953 10950 10948 10944 10940 10937 10934 10931 10927 10923 10917 10912 10910 10905 10901 10896 10891 10885 10879 10874 10873 10875 10877 10880 10883 10885 10890 10894 10896 10899 10901 10902 10904 10906 10908 10911 10914 10917 10918 10920
10960 10956 10951 10948 10946 10943 10939 10936 10933 10930 10927 10923 10920 10915 10909 10906 10903 10896 10893 10888 10884 10878 10875 10867 10865 10868 10872 10877 10881 10882 10884 10888 10890 10893 10896 10898 10900 10902 10905 10908 10912 10914 10917
10956 10953 10948 10944 10941 10938 10934 10931 10929 10926 10922 10918 10915 10909 10906 10899 10898 10892 10887 10883 10880 10875 10871 10868 10860 10860 10862 10865 10867 10871 10876 10880 10883 10884 10887 10890 10893 10896 10899 10902 10905 10908 10912
10952 10948 10944 10940 10937 10933 10930 10926 10924 10920 10915 10912 10908 10904 10898 10895 10893 10889 10882 10876 10874 10871 10866 10862 10859 10856 10851 10854 10860 10864 10866 10868 10873 10875 10877 10881 10884 10888 10891 10895 10899 10902 10906
10947 10943 10939 10936 10932 10929 10924 10920 10916 10912 10908 10903 10900 10897 10893 10889 10885 10884 10878 10870 10863 10864 10860 10856 10852 10849 10844 10842 10844 10848 10854 10859 10862 10866 10868 10869 10874 10878 10882 10885 10890 10894 10898
10941 10938 10933 10930 10926 10922 10918 10914 10909 10904 10901 10897 10891 10888 10885 10881 10878 10876 10873 10868 10862 10856 10851 10846 10843 10841 10838 10836 10833 10837 10841 10844 10848 10851 10854 10858 10861 10865 10871 10875 10879 10884 10889
10934 10931 10927 10923 10919 10915 10910 10904 10902 10898 10894 10890 10885 10879 10874 10871 10867 10863 10860 10857 10854 10850 10843 10838 10835 10832 10830 10828 10828 10826 10826 10825 10827 10831 10835 10841 10846 10851 10857 10863 10867 10873 10879
10926 10922 10919 10916 10911 10906 10903 10898 10894 10889 10884 10881 10876 10872 10866 10859 10855 10850 10845 10842 10840 10837 10833 10828 10825 10822 10820 10818 10816 10815 10811 10808 10809 10811 10815 10820 10827 10834 10841 10848 10855 10860 10866
10919 10915 10909 10903 10900 10896 10891 10889 10885 10880 10874 10870 10867 10862 10857 10849 10846 10839 10833 10828 10824 10819 10819 10815 10811 10807 10804 10802 10802 10802 10800 10793 10788 10788 10792 10799 10805 10813 10821 10830 10839 10846 10851
10910 10904 10900 10895 10890 10886 10880 10877 10874 10871 10866 10861 10856 10853 10848 10842 10836 10830 10824 10819 10814 10807 10798 10800 10794 10789 10785 10783 10783 10781 10779 10774 10769 10761 10767 10775 10783 10791 10800 10810 10819 10829 10837
10900 10893 10888 10885 10881 10877 10873 10869 10864 10860 10857 10851 10844 10841 10836 10830 10825 10818 10813 10807 10803 10795 10792 10781 10779 10772 10764 10762 10761 10761 10753 10749 10747 10741 10743 10749 10758 10768 10779 10790 10801 10811 10821
10889 10883 10876 10871 10869 10866 10863 10858 10853 10846 10843 10838 10832 10828 10823 10817 10811 10804 10800 10796 10791 10784 10777 10771 10763 10757 10749 10744 10739 10731 10726 10724 10719 10713 10714 10723 10733 10747 10758 10767 10779 10792 10803
10879 10873 10868 10860 10855 10852 10849 10847 10841 10835 10829 10825 10820 10813 10809 10803 10797 10793 10787 10782 10775 10768 10761 10756 10751 10743 10732 10723 10716 10707 10703 10699 10692 10687 10688 10695 10707 10724 10737 10748 10760 10773 10786
10867 10863 10857 10852 10847 10841 10837 10833 10827 10821 10817 10811 10807 10801 10795 10790 10786 10780 10773 10767 10759 10752 10748 10741 10732 10723 10713 10703 10696 10688 10680 10672 10667 10663 10662 10670 10683 10699 10717 10729 10740 10754 10767
10857 10852 10845 10841 10836 10830 10826 10820 10813 10806 10803 10797 10792 10787 10780 10773 10766 10762 10754 10746 10741 10735 10728 10721 10712 10705 10696 10685 10675 10665 10658 10652 10642 10642 10642 10648 10659 10672 10687 10703 10719 10733 10749
10848 10840 10836 10831 10826 10820 10814 10807 10800 10795 10789 10783 10777 10770 10762 10754 10748 10741 10736 10729 10723 10718 10712 10704 10693 10682 10674 10665 10657 10646 10636 10632 10625 10621 10625 10626 10638 10649 10661 10679 10699 10716 10731
10841 10833 10825 10818 10812 10804 10797 10791 10784 10778 10772 10767 10761 10754 10746 10739 10733 10724 10718 10713 10704 10697 10690 10683 10676 10668 10658 10648 10641 10629 10613 10608 10606 10603 10607 10607 10619 10628 10638 10659 10680 10697 10711
10822 10816 10810 10802 10795 10789 10781 10776 10771 10765 10759 10752 10747 10737 10729 10722 10716 10707 10702 10695 10686 10678 10674 10667 10658 10649 10637 10629 10620 10605 10593 10588 10584 10584 10589 10591 10601 10607 10625 10640 10655 10673 10691
10803 10797 10791 10784 10778 10771 10763 10759 10752 10747 10742 10734 10725 10719 10713 10706 10700 10690 10683 10676 10668 10659 10650 10643 10632 10624 10616 10608 10600 10585 10573 10571 10567 10567 10574 10578 10584 10596 10609 10617 10631 10649 10667
10786 10778 10772 10766 10760 10757 10748 10742 10733 10727 10722 10714 10708 10703 10695 10687 10683 10674 10664 10657 10648 10639 10632 10620 10612 10604 10593 10582 10576 10564 10557 10552 10553 10553 10562 10562 10566 10581 10588 10600 10613 10632 10650